Regional Weather Roundup
Issued by NWS

Home | Current Version | Previous Version | Text Only | Print | Product List | Glossary Off
Versions: 1 2 3 4 5 6 7 8 9 10 11 12 13 14 15 16 17 18 19 20 21 22 23 24 25 26 27 28 29 30 31 32 33 34 35 36 37 38 39 40 41 42 43 44 45 46 47 48 49 50

000
ASUS43 KIND 280409
RWRIN

WEATHER ROUNDUP FOR INDIANA
NATIONAL WEATHER SERVICE INDIANAPOLIS IN
1200 AM EDT THU MAY 28 2015

NOTE: "FAIR" INDICATES FEW OR NO CLOUDS BELOW 12,000 FEET WITH NO
SIGNIFICANT WEATHER AND/OR OBSTRUCTIONS TO VISIBILITY.

* - STATION DOES NOT REPORT WEATHER SUCH AS PRECIPITATION OR FOG.

+ - STATION NOT QUALITY CONTROLLED BY THE NATIONAL WEATHER SERVICE.
    USE DATA WITH CAUTION...ESPECIALLY DEWPOINT AND RELATIVE
    HUMIDITY OBSERVATIONS.

INZ001>003-010>013-019-020-280500-
NORTHWEST INDIANA

CITY           SKY/WX    TMP DP  RH WIND       PRES   REMARKS
GARY /AIRPORT/ CLEAR     57  56  97 CALM      30.14S
KNOX *+        CLEAR     57  57 100 N5        30.13S
LA PORTE +     CLEAR     58  55  88 CALM      30.14S
MICHIGAN CITY+ CLEAR     54  54 100 CALM      30.14R
MONTICELLO +   CLEAR     61  58  87 CALM      30.12S
RENSSELAER +   CLEAR     63  55  77 N8        30.14R
VALPARAISO     CLEAR     58  55  90 CALM      30.14R

$$

LMZ046-743>745-280500-
SOUTHERN LAKE MICHIGAN

STATION/POSITION TIME  TEMP    WIND        PRES    WAVE
                       AIR SEA DIR/SP/G            HT
                 (UTC) (F)     (DEG/KT/KT) (MB)    (FT)
BURNS HARBOR     0400   62      90/  4/  5 1021.0R
MICHIGAN CITY    0400   60     120/  2/  3   N/A
5NW MICH CITY    0400   56 53  160/  2/  2   N/A     1

$$

INZ004-005-014>016-021>024-280500-
NORTH CENTRAL INDIANA

CITY           SKY/WX    TMP DP  RH WIND       PRES   REMARKS
GOSHEN         CLEAR     57  54  89 NW6       30.13R
LOGANSPORT +   CLEAR     61  54  77 N6        30.14R
ROCHESTER +    CLEAR     61  57  88 NW3       30.13S
SOUTH BEND     CLEAR     58  55  90 SW3       30.15R
WARSAW +       CLEAR     59  55  88 NW5       30.12S

$$

INZ006>009-017-018-025>027-280500-
NORTHEAST INDIANA

CITY           SKY/WX    TMP DP  RH WIND       PRES   REMARKS
ANGOLA *+      CLEAR     63  57  82 NW5       30.11R
AUBURN +       CLEAR     61  55  82 NW5       30.12R
FORT WAYNE     PTCLDY    64  57  78 NW3       30.12R
HUNTINGTON +   CLEAR     63  57  80 CALM      30.12R

$$

INZ028-029-035-036-043>045-051>053-280500-
WEST CENTRAL INDIANA

CITY           SKY/WX    TMP DP  RH WIND       PRES   REMARKS
CRAWFORDSVL +  PTCLDY    60  55  82 CALM      30.13R
GREENCASTLE +  MOCLDY    63  59  88 CALM      30.14R
LAFAYETTE      CLEAR     65  57  75 N6        30.12R
TERRE HAUTE    PTCLDY    65  60  84 CALM      30.12R

$$

INZ030>032-037>040-046>048-054>057-064-065-280500-
CENTRAL INDIANA

CITY           SKY/WX    TMP DP  RH WIND       PRES   REMARKS
CP ATTERBURY + CLOUDY    68  63  83 CALM      30.14R
FISHERS *+     MOCLDY    63  63 100 CALM      30.13R
FRANKFORT +    CLEAR     64  59  84 CALM      30.15R
GREENWOOD *+   MOCLDY    72  61  68 SW3       30.13R
INDIANAPOLIS   CLOUDY    69  63  81 S3        30.11R
-EAGLE CREEK   PTCLDY    66  64  93 CALM      30.12R
KOKOMO *+      CLEAR     63  55  77 SE5       30.13R
MARION +       MOCLDY    65  58  76 CALM      30.14R
MT COMFORT *+  MOCLDY    68  61  77 W5        30.13R
SHELBYVILLE    CLOUDY    72  65  78 S10       30.12R
ZIONSVILLE +   PTCLDY    67  60  80 N8        30.14R

$$

INZ033-034-041-042-049-050-058-059-280500-
EAST CENTRAL INDIANA

CITY           SKY/WX    TMP DP  RH WIND       PRES   REMARKS
MUNCIE         MOCLDY    68  62  81 NW9       30.12R

$$

INZ060-061-067>069-081>083-085>088-280500-
SOUTHWEST INDIANA

CITY           SKY/WX    TMP DP  RH WIND       PRES   REMARKS
EVANSVILLE     MOCLDY    69  64  84 S5        30.13F
HUNTINGBURG *+ CLOUDY    66  61  82 S5        30.14S
WASHINGTON +   MOCLDY    68  62  79 S7        30.12S

$$

INZ062-063-066-070>080-084-089>092-280500-
SOUTH CENTRAL AND SOUTHEAST INDIANA

CITY           SKY/WX    TMP DP  RH WIND       PRES   REMARKS
BLOOMINGTON    CLOUDY    69  64  84 SW7       30.13R
MADISON *+     CLOUDY    64  61  88 S5        30.17S
NORTH VERNON + CLOUDY    66  66 100 S5        30.16R
SEYMOUR +      CLOUDY    68  63  83 SW5       30.14R

$$




USA.gov is the U.S. government's official web portal to all federal, state and local government web resources and services.